Wallops Island, VA

7:04 AM EST on December 11, 2019 (GMT -0500)
Wallops Flight Facility

Weather History for KWAL - October, 2019

Change the Weather History Date:

Sunday, October 6, 2019

  Actual Average Record
Temperature  
Mean Temperature 71 °F 62 °F  
Max Temperature 78 °F 71 °F 89 °F (1997)
Min Temperature 64 °F 54 °F 41 °F (1999)
Degree Days  
Heating Degree Days 0    
Month to date heating degree days 6  
Since 1 July heating degree days 15  
Cooling Degree Days 6    
Month to date cooling degree days 44  
Year to date cooling degree days 1791  
Growing Degree Days 20 (Base 50)    
Moisture  
Dew Point 61 °F    
Average Humidity 71    
Maximum Humidity 78    
Minimum Humidity 63    
Precipitation  
Precipitation 0.00 in 0.11 in 2.16 in (2006)
Month to date precipitation T 0.62  
Year to date precipitation 34.33 31.99  
Sea Level Pressure  
Sea Level Pressure 30.29 in    
Wind  
Wind Speed 11 mph (SSE)    
Max Wind Speed 20 mph    
Max Gust Speed 25 mph    
Visibility 10 miles    
Events      
T = Trace of Precipitation, MM = Missing Value Source: NWS Daily Summary

Daily Weather History Graph

Daily Weather History Graph

Search for Another Location

Airport or City:

Astronomy

Oct. 06, 2019 Rise Set
Actual Time 7:01 AM EDT 6:37 PM EDT
Civil Twilight 6:35 AM EDT 7:03 PM EDT
Nautical Twilight 6:05 AM EDT 7:34 PM EDT
Astronomical Twilight 5:34 AM EDT 8:04 PM EDT
Moon 3:07 PM EDT (10/6) 12:05 AM EDT (10/6)
Length of Visible Light 12h 28m
Length of Day
11h 35m
First Quarter, 59% of the Moon is Illuminated
Oct 6
First Quarter
Oct 13
Full
Oct 21
Last Quarter
Oct 27
New
Nov 4
First Quarter

Hourly Weather History & Observations

Time (EDT) Temp. Dew Point Humidity Pressure Visibility Wind Dir Wind Speed Gust Speed Precip Events Conditions
12:54 AM 64.0 °F 55.0 °F 73% 30.30 in 10.0 mi East 9.2 mph - N/A   Mostly Cloudy
1:54 AM 64.9 °F 57.0 °F 75% 30.30 in 10.0 mi East 5.8 mph - N/A   Overcast
2:54 AM 66.9 °F 57.0 °F 70% 30.29 in 10.0 mi SE 10.4 mph - N/A   Overcast
3:54 AM 68.0 °F 55.9 °F 65% 30.28 in 10.0 mi SE 9.2 mph - N/A   Overcast
4:54 AM 68.0 °F 57.0 °F 68% 30.27 in 10.0 mi SE 9.2 mph - N/A   Overcast
5:54 AM 68.0 °F 59.0 °F 73% 30.27 in 10.0 mi SSE 6.9 mph - N/A   Overcast
6:54 AM 70.0 °F 57.9 °F 65% 30.28 in 10.0 mi SSE 10.4 mph - N/A   Overcast
7:54 AM 70.0 °F 57.9 °F 65% 30.30 in 10.0 mi South 9.2 mph - N/A   Overcast
8:54 AM 71.1 °F 60.1 °F 68% 30.30 in 10.0 mi SSE 11.5 mph - N/A   Overcast
9:54 AM 71.1 °F 61.0 °F 70% 30.32 in 10.0 mi SSE 11.5 mph - N/A   Overcast
10:54 AM 71.1 °F 62.1 °F 73% 30.32 in 10.0 mi SSE 10.4 mph - N/A   Overcast
11:54 AM 73.0 °F 63.0 °F 71% 30.31 in 10.0 mi SSE 10.4 mph - N/A   Overcast
12:54 PM 73.9 °F 63.0 °F 68% 30.31 in 10.0 mi South 10.4 mph - N/A   Overcast
1:54 PM 75.0 °F 63.0 °F 66% 30.28 in 10.0 mi South 13.8 mph 23.0 mph N/A   Mostly Cloudy
2:54 PM 73.9 °F 63.0 °F 68% 30.29 in 10.0 mi South 12.7 mph - N/A   Overcast
3:54 PM 73.0 °F 63.0 °F 71% 30.28 in 10.0 mi South 12.7 mph 21.9 mph N/A   Overcast
4:54 PM 73.0 °F 62.1 °F 68% 30.27 in 10.0 mi South 13.8 mph - N/A   Mostly Cloudy
5:54 PM 72.0 °F 63.0 °F 73% 30.28 in 10.0 mi South 12.7 mph - N/A   Mostly Cloudy
6:54 PM 72.0 °F 62.1 °F 71% 30.27 in 10.0 mi South 12.7 mph - N/A   Overcast
7:54 PM 72.0 °F 63.0 °F 73% 30.27 in 10.0 mi South 13.8 mph - N/A   Overcast
8:54 PM 72.0 °F 62.1 °F 71% 30.28 in 10.0 mi South 13.8 mph - N/A   Overcast
9:54 PM 71.1 °F 63.0 °F 75% 30.28 in 10.0 mi South 13.8 mph - N/A   Overcast
10:54 PM 71.1 °F 63.0 °F 75% 30.27 in 10.0 mi South 12.7 mph - N/A   Mostly Cloudy
11:54 PM 70.0 °F 63.0 °F 78% 30.26 in 10.0 mi South 10.4 mph - N/A   Overcast